カタログに戻る

ATLAS 5 CENTAUR DEB

運用中HEO
NORAD 44677·DEBRIS·🇺🇸 United States

打ち上げ Oct 17, 2018 から Cape Canaveral Space Force Station

Loading…

次のパス (今後24時間)

TLE

最新Source: Space-Track

元期: Sep 13, 2026, 21:13 UTC

1 44677U 18079AP  26256.88407251 -.00000148  00000-0  00000-0 0  9993
2 44677  13.1501  49.6442 4410283 284.0774  32.0174  1.78490729 47368

AllMySatでATLAS 5 CENTAUR DEBをリアルタイム追跡

Download on the App Store